Simultaneous Nadir Overpasses (SNOs) Predictions

Prediction of SNOs between NOAA-20 and NOAA-19 Satellite Orbit:

Table of predicted SNOs for the next 14.0 days since TLE Epoch: 9/26/2020
Index Date (NOAA-20) Time (NOAA-20) Lat,Lon (NOAA-20) SZA (NOAA-20 ) Date (NOAA-19) Time (NOAA-19) Lat,Lon (NOAA-19) SZA (NOAA-19 ) Distance(km) Time Diff (sec)
1 10/02/2020 09:38:35 -78.71,-173.33 96.39 10/02/2020 09:37:32 -78.68,-177.86 95.96 98.69 63
2 10/02/2020 10:29:29 79.03, -8.16 84.11 10/02/2020 10:28:25 79.02, -8.05 84.11 2.66 64
3 10/02/2020 11:20:13 -79.00, 159.33 95.92 10/02/2020 11:19:22 -79.03, 159.29 95.88 2.62 51
4 10/02/2020 12:10:59 79.03, -33.57 84.14 10/02/2020 12:10:25 79.03, -33.42 84.14 3.22 34
5 10/02/2020 13:01:43 -79.01, 133.91 95.89 10/02/2020 13:01:22 -79.04, 133.93 95.85 3.75 21
6 10/02/2020 13:52:29 79.04, -58.99 84.18 10/02/2020 13:52:26 79.02, -59.05 84.16 3.02 3
7 10/02/2020 14:43:14 -79.05, 108.25 95.80 10/02/2020 14:43:23 -79.03, 108.30 95.83 2.81 9
8 10/02/2020 15:33:59 79.05, -84.40 84.21 10/02/2020 15:34:26 79.03, -84.42 84.19 1.58 27
9 10/02/2020 16:24:44 -79.06, 82.84 95.76 10/02/2020 16:25:23 -79.04, 82.94 95.80 2.52 39
10 10/02/2020 17:15:29 79.05,-109.81 84.25 10/02/2020 17:16:26 79.05,-109.79 84.22 0.69 57
11 10/02/2020 18:06:14 -79.06, 57.43 95.73 10/02/2020 18:07:23 -79.06, 57.58 95.77 3.15 69
